Weather History for KMLP - April, 2013

Change the Weather History Date:

Tuesday, April 9, 2013

  Actual Average (K3TH) Record (K3TH)
Temperature  
Mean Temperature 26 °F -  
Max Temperature 39 °F 50 °F 53 °F (1998)
Min Temperature 15 °F 31 °F 30 °F (1998)
Degree Days  
Heating Degree Days 39    
Moisture  
Dew Point 18 °F    
Average Humidity 77    
Maximum Humidity 100    
Minimum Humidity 55    
Precipitation  
Precipitation 0.00 in - - ()
Sea Level Pressure  
Sea Level Pressure 30.30 in    
Wind  
Wind Speed 6 mph (SSE)    
Max Wind Speed 13 mph    
Max Gust Speed 20 mph    
Visibility 10 miles    
Events      
Averages and records for this station are not official NWS values.
T = Trace of Precipitation, MM = Missing Value Source: NWS Daily Summary

Daily Weather History Graph

Daily Weather History Graph

Search for Another Location

Airport or City:

Trip Planner

Search our weather history database for the weather conditions in past years. The results will help you decide how hot, cold, wet, or windy it might be!

Date:

Astronomy

Apr. 09, 2013 Rise Set
Actual Time 6:04 AM PDT 7:24 PM PDT
Civil Twilight 5:33 AM PDT 7:55 PM PDT
Nautical Twilight 4:55 AM PDT 8:34 PM PDT
Astronomical Twilight 4:14 AM PDT 9:15 PM PDT
Moon 5:31 AM PDT (4/9) 7:04 PM PDT (4/9)
Length of Visible Light 14h 22m
Length of Day
13h 19m
Waning Crescent, 0% of the Moon is Illuminated
Apr 9
Waning Crescent
Apr 10
New
Apr 18
First Quarter
Apr 25
Full
May 2
Last Quarter

Hourly Weather History & Observations

Time (PDT) Temp. Windchill Dew Point Humidity Pressure Visibility Wind Dir Wind Speed Gust Speed Precip Events Conditions
12:53 AM 18.0 °F 12.7 °F 16.0 °F 92% 30.27 in 10.0 mi SE 3.5 mph - N/A   Clear
1:53 AM 19.0 °F 10.0 °F 16.0 °F 88% 30.25 in 10.0 mi Variable 6.9 mph - N/A   Clear
2:53 AM 18.0 °F 7.7 °F 16.0 °F 92% 30.25 in 10.0 mi ESE 8.1 mph - N/A   Clear
3:05 AM 17.6 °F 7.3 °F 17.6 °F 100% 30.11 in 10.0 mi ESE 8.1 mph - N/A   Partly Cloudy
3:53 AM 17.1 °F 5.8 °F 15.1 °F 92% 30.29 in 10.0 mi SE 9.2 mph - N/A   Partly Cloudy
4:53 AM 16.0 °F 2.9 °F 14.0 °F 92% 30.31 in 10.0 mi SE 11.5 mph 18.4 mph N/A   Clear
5:53 AM 16.0 °F 2.9 °F 12.9 °F 88% 30.32 in 10.0 mi SE 11.5 mph - N/A   Clear
6:53 AM 15.1 °F 1.1 °F 12.0 °F 88% 30.36 in 10.0 mi SE 12.7 mph 19.6 mph N/A   Clear
7:53 AM 17.1 °F 5.8 °F 12.9 °F 84% 30.38 in 10.0 mi SE 9.2 mph 17.3 mph N/A   Clear
8:53 AM 19.9 °F 11.1 °F 16.0 °F 85% 30.37 in 10.0 mi SE 6.9 mph - N/A   Clear
9:53 AM 23.0 °F 18.4 °F 17.1 °F 78% 30.36 in 10.0 mi Variable 3.5 mph - N/A   Clear
10:53 AM 27.0 °F - 18.0 °F 69% 30.34 in 10.0 mi Calm Calm - N/A   Clear
11:53 AM 30.0 °F - 18.0 °F 61% 30.34 in 10.0 mi Calm Calm - N/A   Clear
12:53 PM 32.0 °F - 19.9 °F 61% 30.34 in 10.0 mi Calm Calm - N/A   Partly Cloudy
1:53 PM 32.0 °F 27.5 °F 19.9 °F 61% 30.32 in 10.0 mi SW 4.6 mph - N/A   Scattered Clouds
2:53 PM 34.0 °F - 19.9 °F 56% 30.31 in 10.0 mi Calm Calm - N/A   Partly Cloudy
3:53 PM 37.9 °F 35.5 °F 23.0 °F 55% 30.28 in 10.0 mi Variable 3.5 mph - N/A   Mostly Cloudy
4:53 PM 36.0 °F 32.1 °F 21.9 °F 57% 30.30 in 10.0 mi Variable 4.6 mph - N/A   Scattered Clouds
5:53 PM 33.1 °F 27.7 °F 21.9 °F 64% 30.31 in 10.0 mi Variable 5.8 mph - N/A   Scattered Clouds
6:53 PM 30.0 °F 23.2 °F 21.9 °F 72% 30.32 in 10.0 mi Variable 6.9 mph - N/A   Clear
7:53 PM 28.0 °F 22.8 °F 21.9 °F 78% 30.32 in 10.0 mi NW 4.6 mph - N/A   Clear
8:53 PM 28.0 °F 24.2 °F 21.9 °F 78% 30.31 in 10.0 mi NW 3.5 mph - N/A   Mostly Cloudy
9:53 PM 28.0 °F - 21.9 °F 78% 30.29 in 10.0 mi Calm Calm - N/A   Overcast
10:53 PM 28.9 °F 25.2 °F 21.0 °F 72% 30.26 in 10.0 mi West 3.5 mph - N/A   Overcast
11:53 PM 28.9 °F 23.9 °F 21.9 °F 75% 30.09 in 10.0 mi West 4.6 mph - N/A   Overcast